Location: Bushey
(51.6333°N, 0.3667°W)
Time: 21:43:32
(UTC+00:00)

SKYMED 2 - Pass Details

Date: 03 March 2021
Orbit: 621 x 623 km, 97.9° (Epoch: 16 April)

Event Time Altitude Azimuth Distance (km) Brightness Sun altitude
Rises 18:29:53 0° 12° (NNE) 2,920 6.9 -7.7°
Reaches altitude 10° 18:32:06 10° 11° (N) 2,008 6.1 -8.0°
Maximum altitude 18:36:27 75° 287° (WNW) 652 3.8 -8.7°
Drops below altitude 10° 18:40:46 10° 202° (SSW) 1,991 6.4 -9.4°
Sets 18:42:57 0° 201° (SSW) 2,892 7.3 -9.7°
